This is the latest recevied weather packets stored in our database for station/object KC0AFB. If no packets are shown the sender has not sent any weather packets the latest 10 day(s).
| Time | Temp. | Humidity | Pressure | Rain* | Wind** | Luminosity | Snow |
|---|---|---|---|---|---|---|---|
| 1777685162 | 13.89° C | 42% | 1018.2 hPa | 0 mm | - | 18 W/m² | - |
| 1777684860 | 14.44° C | 42% | 1018.1 hPa | 0 mm | - | 22 W/m² | - |
| 1777684556 | 14.44° C | 41% | 1018.1 hPa | 0 mm | - | 28 W/m² | - |
| 1777684252 | 15° C | 40% | 1018.2 hPa | 0 mm | - | 32 W/m² | - |
| 1777683950 | 15° C | 39% | 1018.1 hPa | 0 mm | - | 35 W/m² | - |
| 1777683645 | 15° C | 40% | 1018.2 hPa | 0 mm | - | 40 W/m² | - |
| 1777683344 | 15° C | 40% | 1018.2 hPa | 0 mm | - | 43 W/m² | - |
| 1777683041 | 15° C | 40% | 1018 hPa | 0 mm | - | 46 W/m² | - |
| 1777682737 | 15.56° C | 38% | 1018.1 hPa | 0 mm | - | 50 W/m² | - |
| 1777682433 | 16.11° C | 38% | 1018.1 hPa | 0 mm | - | 49 W/m² | - |
| 1777682132 | 16.11° C | 36% | 1018 hPa | 0 mm | - | 92 W/m² | - |
| 1777681828 | 16.67° C | 37% | 1018.3 hPa | 0 mm | - | 102 W/m² | - |
| 1777681525 | 16.67° C | 36% | 1018.5 hPa | 0 mm | - | 112 W/m² | - |
| 1777681222 | 16.67° C | 35% | 1018.2 hPa | 0 mm | - | 50 W/m² | - |
| 1777680920 | 16.67° C | 35% | 1018.3 hPa | 0 mm | - | 52 W/m² | - |
| 1777680617 | 16.67° C | 35% | 1018.3 hPa | 0 mm | - | 131 W/m² | - |
| 1777680315 | 16.67° C | 38% | 1018.3 hPa | 0 mm | - | 143 W/m² | - |
| 1777680012 | 16.67° C | 36% | 1018.5 hPa | 0 mm | - | 151 W/m² | - |
| 1777679707 | 16.67° C | 35% | 1018.6 hPa | 0 mm | - | 185 W/m² | - |
| 1777679403 | 16.67° C | 36% | 1018.5 hPa | 0 mm | - | 210 W/m² | - |
| 1777679099 | 16.67° C | 36% | 1018.6 hPa | 0 mm | - | 228 W/m² | - |
| 1777678798 | 16.67° C | 35% | 1018.2 hPa | 0 mm | - | 241 W/m² | - |
| 1777678495 | 16.67° C | 36% | 1018.5 hPa | 0 mm | - | 265 W/m² | - |
| 1777678190 | 16.11° C | 36% | 1018.7 hPa | 0 mm | - | 262 W/m² | - |
| 1777677888 | 16.11° C | 37% | 1018.5 hPa | 0 mm | - | 276 W/m² | - |
* Rain latest hour (hover to see other rain measurements)
** Current wind speed in m/s (hover to see current wind gust speed)